Year,Month,Day,Hour,Minute,Value (Times are PST for temperature in C)
2007,05,18,00,00,9.60
2007,05,18,00,01,9.60
2007,05,18,00,02,9.60
2007,05,18,00,03,9.60
2007,05,18,00,04,9.60
2007,05,18,00,05,9.60
2007,05,18,00,06,9.60
2007,05,18,00,07,9.60
2007,05,18,00,08,9.60
2007,05,18,00,09,9.60
2007,05,18,00,10,9.60
2007,05,18,00,11,9.60
2007,05,18,00,12,9.60
2007,05,18,00,13,9.60
2007,05,18,00,14,9.60
2007,05,18,00,15,9.60
2007,05,18,00,16,9.60
2007,05,18,00,17,9.60
2007,05,18,00,18,9.50
2007,05,18,00,19,9.50
2007,05,18,00,20,9.50
2007,05,18,00,21,9.50
2007,05,18,00,22,9.50
2007,05,18,00,23,9.50
2007,05,18,00,24,9.40
2007,05,18,00,25,9.40
2007,05,18,00,26,9.40
2007,05,18,00,27,9.40
2007,05,18,00,28,9.40
2007,05,18,00,29,9.40
2007,05,18,00,30,9.40
2007,05,18,00,31,9.40
2007,05,18,00,32,9.40
2007,05,18,00,33,9.40
2007,05,18,00,34,9.40
2007,05,18,00,35,9.40
2007,05,18,00,36,9.40
2007,05,18,00,37,9.40
2007,05,18,00,38,9.40
2007,05,18,00,39,9.40
2007,05,18,00,40,9.40
2007,05,18,00,41,9.40
2007,05,18,00,42,9.40
2007,05,18,00,43,9.40
2007,05,18,00,44,9.40
2007,05,18,00,45,9.40
2007,05,18,00,46,9.40
2007,05,18,00,47,9.40
2007,05,18,00,48,9.40
2007,05,18,00,49,9.40
2007,05,18,00,50,9.30
2007,05,18,00,51,9.30
2007,05,18,00,52,9.30
2007,05,18,00,53,9.30
2007,05,18,00,54,9.30
2007,05,18,00,55,9.30
2007,05,18,00,56,9.30
2007,05,18,00,57,9.30
2007,05,18,00,58,9.30
2007,05,18,00,59,9.30
2007,05,18,01,00,9.30
2007,05,18,01,01,9.30
2007,05,18,01,02,9.30
2007,05,18,01,03,9.30
2007,05,18,01,04,9.30
2007,05,18,01,05,9.30
2007,05,18,01,06,9.30
2007,05,18,01,07,9.30
2007,05,18,01,08,9.30
2007,05,18,01,09,9.30
2007,05,18,01,10,9.30
2007,05,18,01,11,9.30
2007,05,18,01,12,9.30
2007,05,18,01,13,9.30
2007,05,18,01,14,9.30
2007,05,18,01,15,9.30
2007,05,18,01,16,9.30
2007,05,18,01,17,9.30
2007,05,18,01,18,9.30
2007,05,18,01,19,9.30
2007,05,18,01,20,9.30
2007,05,18,01,21,9.30
2007,05,18,01,22,9.30
2007,05,18,01,23,9.20
2007,05,18,01,24,9.20
2007,05,18,01,25,9.20
2007,05,18,01,26,9.20
2007,05,18,01,27,9.20
2007,05,18,01,28,9.20
2007,05,18,01,29,9.20
2007,05,18,01,30,9.20
2007,05,18,01,31,9.20
2007,05,18,01,32,9.20
2007,05,18,01,33,9.20
2007,05,18,01,34,9.20
2007,05,18,01,35,9.20
2007,05,18,01,36,9.20
2007,05,18,01,37,9.20
2007,05,18,01,38,9.20
2007,05,18,01,39,9.20
2007,05,18,01,40,9.20
2007,05,18,01,41,9.20
2007,05,18,01,42,9.20
2007,05,18,01,43,9.20
2007,05,18,01,44,9.20
2007,05,18,01,45,9.20
2007,05,18,01,46,9.20
2007,05,18,01,47,9.20
2007,05,18,01,48,9.20
2007,05,18,01,49,9.20
2007,05,18,01,50,9.20
2007,05,18,01,51,9.10
2007,05,18,01,52,9.10
2007,05,18,01,53,9.10
2007,05,18,01,54,9.10
2007,05,18,01,55,9.10
2007,05,18,01,56,9.10
2007,05,18,01,57,9.10
2007,05,18,01,58,9.10
2007,05,18,01,59,9.00
2007,05,18,02,00,9.00
2007,05,18,02,01,9.00
2007,05,18,02,02,9.00
2007,05,18,02,03,9.10
2007,05,18,02,04,9.10
2007,05,18,02,05,9.10
2007,05,18,02,06,9.10
2007,05,18,02,07,9.00
2007,05,18,02,08,9.00
2007,05,18,02,09,9.00
2007,05,18,02,10,8.90
2007,05,18,02,11,8.90
2007,05,18,02,12,8.80
2007,05,18,02,13,8.80
2007,05,18,02,14,8.80
2007,05,18,02,15,8.70
2007,05,18,02,16,8.70
2007,05,18,02,17,8.70
2007,05,18,02,18,8.70
2007,05,18,02,19,8.70
2007,05,18,02,20,8.70
2007,05,18,02,21,8.70
2007,05,18,02,22,8.70
2007,05,18,02,23,8.70
2007,05,18,02,24,8.70
2007,05,18,02,25,8.60
2007,05,18,02,26,8.60
2007,05,18,02,27,8.60
2007,05,18,02,28,8.60
2007,05,18,02,29,8.60
2007,05,18,02,30,8.50
2007,05,18,02,31,8.50
2007,05,18,02,32,8.50
2007,05,18,02,33,8.50
2007,05,18,02,34,8.50
2007,05,18,02,35,8.50
2007,05,18,02,36,8.40
2007,05,18,02,37,8.40
2007,05,18,02,38,8.40
2007,05,18,02,39,8.40
2007,05,18,02,40,8.40
2007,05,18,02,41,8.40
2007,05,18,02,42,8.40
2007,05,18,02,43,8.40
2007,05,18,02,44,8.40
2007,05,18,02,45,8.40
2007,05,18,02,46,8.40
2007,05,18,02,47,8.40
2007,05,18,02,48,8.50
2007,05,18,02,49,8.50
2007,05,18,02,50,8.40
2007,05,18,02,51,8.50
2007,05,18,02,52,8.40
2007,05,18,02,53,8.40
2007,05,18,02,54,8.40
2007,05,18,02,55,8.40
2007,05,18,02,56,8.40
2007,05,18,02,57,8.30
2007,05,18,02,58,8.30
2007,05,18,02,59,8.30
2007,05,18,03,00,8.30
2007,05,18,03,01,8.30
2007,05,18,03,02,8.30
2007,05,18,03,03,8.30
2007,05,18,03,04,8.30
2007,05,18,03,05,8.30
2007,05,18,03,06,8.30
2007,05,18,03,07,8.30
2007,05,18,03,08,8.30
2007,05,18,03,09,8.30
2007,05,18,03,10,8.30
2007,05,18,03,11,8.20
2007,05,18,03,12,8.20
2007,05,18,03,13,8.20
2007,05,18,03,14,8.20
2007,05,18,03,15,8.20
2007,05,18,03,16,8.20
2007,05,18,03,17,8.20
2007,05,18,03,18,8.20
2007,05,18,03,19,8.20
2007,05,18,03,20,8.20
2007,05,18,03,21,8.20
2007,05,18,03,22,8.20
2007,05,18,03,23,8.20
2007,05,18,03,24,8.20
2007,05,18,03,25,8.20
2007,05,18,03,26,8.20
2007,05,18,03,27,8.20
2007,05,18,03,28,8.20
2007,05,18,03,29,8.20
2007,05,18,03,30,8.20
2007,05,18,03,31,8.20
2007,05,18,03,32,8.20
2007,05,18,03,33,8.20
2007,05,18,03,34,8.20
2007,05,18,03,35,8.20
2007,05,18,03,36,8.20
2007,05,18,03,37,8.20
2007,05,18,03,38,8.20
2007,05,18,03,39,8.20
2007,05,18,03,40,8.20
2007,05,18,03,41,8.20
2007,05,18,03,42,8.20
2007,05,18,03,43,8.20
2007,05,18,03,44,8.20
2007,05,18,03,45,8.20
2007,05,18,03,46,8.20
2007,05,18,03,47,8.20
2007,05,18,03,48,8.20
2007,05,18,03,49,8.20
2007,05,18,03,50,8.20
2007,05,18,03,51,8.10
2007,05,18,03,52,8.10
2007,05,18,03,53,8.10
2007,05,18,03,54,8.10
2007,05,18,03,55,8.10
2007,05,18,03,56,8.00
2007,05,18,03,57,8.00
2007,05,18,03,58,8.00
2007,05,18,03,59,8.00
2007,05,18,04,00,8.00
2007,05,18,04,01,8.00
2007,05,18,04,02,8.00
2007,05,18,04,03,8.00
2007,05,18,04,04,8.00
2007,05,18,04,05,8.00
2007,05,18,04,06,8.00
2007,05,18,04,07,8.00
2007,05,18,04,08,8.00
2007,05,18,04,09,8.00
2007,05,18,04,10,7.90
2007,05,18,04,11,7.90
2007,05,18,04,12,7.90
2007,05,18,04,13,7.90
2007,05,18,04,14,7.90
2007,05,18,04,15,7.90
2007,05,18,04,16,7.90
2007,05,18,04,17,7.90
2007,05,18,04,18,7.90
2007,05,18,04,19,7.90
2007,05,18,04,20,7.90
2007,05,18,04,21,7.90
2007,05,18,04,22,7.90
2007,05,18,04,23,7.90
2007,05,18,04,24,7.80
2007,05,18,04,25,7.80
2007,05,18,04,26,7.80
2007,05,18,04,27,7.80
2007,05,18,04,28,7.80
2007,05,18,04,29,7.80
2007,05,18,04,30,7.80
2007,05,18,04,31,7.80
2007,05,18,04,32,7.80
2007,05,18,04,33,7.80
2007,05,18,04,34,7.80
2007,05,18,04,35,7.80
2007,05,18,04,36,7.80
2007,05,18,04,37,7.80
2007,05,18,04,38,7.80
2007,05,18,04,39,7.80
2007,05,18,04,40,7.70
2007,05,18,04,41,7.70
2007,05,18,04,42,7.70
2007,05,18,04,43,7.70
2007,05,18,04,44,7.70
2007,05,18,04,45,7.70
2007,05,18,04,46,7.70
2007,05,18,04,47,7.60
2007,05,18,04,48,7.60
2007,05,18,04,49,7.60
2007,05,18,04,50,7.60
2007,05,18,04,51,7.60
2007,05,18,04,52,7.50
2007,05,18,04,53,7.50
2007,05,18,04,54,7.50
2007,05,18,04,55,7.50
2007,05,18,04,56,7.50
2007,05,18,04,57,7.50
2007,05,18,04,58,7.50
2007,05,18,04,59,7.50
2007,05,18,05,00,7.50
2007,05,18,05,01,7.40
2007,05,18,05,02,7.40
2007,05,18,05,03,7.40
2007,05,18,05,04,7.40
2007,05,18,05,05,7.40
2007,05,18,05,06,7.30
2007,05,18,05,07,7.30
2007,05,18,05,08,7.30
2007,05,18,05,09,7.30
2007,05,18,05,10,7.30
2007,05,18,05,11,7.30
2007,05,18,05,12,7.30
2007,05,18,05,13,7.30
2007,05,18,05,14,7.30
2007,05,18,05,15,7.30
2007,05,18,05,16,7.30
2007,05,18,05,17,7.30
2007,05,18,05,18,7.30
2007,05,18,05,19,7.20
2007,05,18,05,20,7.20
2007,05,18,05,21,7.10
2007,05,18,05,22,7.10
2007,05,18,05,23,7.00
2007,05,18,05,24,7.00
2007,05,18,05,25,6.90
2007,05,18,05,26,6.80
2007,05,18,05,27,6.80
2007,05,18,05,28,6.80
2007,05,18,05,29,6.80
2007,05,18,05,30,6.70
2007,05,18,05,31,6.70
2007,05,18,05,32,6.60
2007,05,18,05,33,6.60
2007,05,18,05,34,6.60
2007,05,18,05,35,6.60
2007,05,18,05,36,6.50
2007,05,18,05,37,6.40
2007,05,18,05,38,6.40
2007,05,18,05,39,6.40
2007,05,18,05,40,6.40
2007,05,18,05,41,6.40
2007,05,18,05,42,6.40
2007,05,18,05,43,6.40
2007,05,18,05,44,6.40
2007,05,18,05,45,6.40
2007,05,18,05,46,6.40
2007,05,18,05,47,6.40
2007,05,18,05,48,6.40
2007,05,18,05,49,6.40
2007,05,18,05,50,6.40
2007,05,18,05,51,6.40
2007,05,18,05,52,6.40
2007,05,18,05,53,6.40
2007,05,18,05,54,6.40
2007,05,18,05,55,6.40
2007,05,18,05,56,6.40
2007,05,18,05,57,6.40
2007,05,18,05,58,6.40
2007,05,18,05,59,6.40
2007,05,18,06,00,6.40
2007,05,18,06,01,6.40
2007,05,18,06,02,6.40
2007,05,18,06,03,6.40
2007,05,18,06,04,6.40
2007,05,18,06,05,6.40
2007,05,18,06,06,6.40
2007,05,18,06,07,6.40
2007,05,18,06,08,6.50
2007,05,18,06,09,6.60
2007,05,18,06,10,6.60
2007,05,18,06,11,6.70
2007,05,18,06,12,6.80
2007,05,18,06,13,6.80
2007,05,18,06,14,6.90
2007,05,18,06,15,6.90
2007,05,18,06,16,7.00
2007,05,18,06,17,7.00
2007,05,18,06,18,7.10
2007,05,18,06,19,7.10
2007,05,18,06,20,7.20
2007,05,18,06,21,7.20
2007,05,18,06,22,7.30
2007,05,18,06,23,7.30
2007,05,18,06,24,7.30
2007,05,18,06,25,7.40
2007,05,18,06,26,7.50
2007,05,18,06,27,7.50
2007,05,18,06,28,7.60
2007,05,18,06,29,7.70
2007,05,18,06,30,7.80
2007,05,18,06,31,7.80
2007,05,18,06,32,7.80
2007,05,18,06,33,7.90
2007,05,18,06,34,7.90
2007,05,18,06,35,8.00
2007,05,18,06,36,8.10
2007,05,18,06,37,8.10
2007,05,18,06,38,8.20
2007,05,18,06,39,8.20
2007,05,18,06,40,8.30
2007,05,18,06,41,8.40
2007,05,18,06,42,8.40
2007,05,18,06,43,8.50
2007,05,18,06,44,8.60
2007,05,18,06,45,8.70
2007,05,18,06,46,8.70
2007,05,18,06,47,8.80
2007,05,18,06,48,8.80
2007,05,18,06,49,8.90
2007,05,18,06,50,9.00
2007,05,18,06,51,9.00
2007,05,18,06,52,9.10
2007,05,18,06,53,9.20
2007,05,18,06,54,9.20
2007,05,18,06,55,9.30
2007,05,18,06,56,9.40
2007,05,18,06,57,9.40
2007,05,18,06,58,9.50
2007,05,18,06,59,9.50
2007,05,18,07,00,9.60
2007,05,18,07,01,9.60
2007,05,18,07,02,9.70
2007,05,18,07,03,9.70
2007,05,18,07,04,9.70
2007,05,18,07,05,9.70
2007,05,18,07,06,9.70
2007,05,18,07,07,9.70
2007,05,18,07,08,9.70
2007,05,18,07,09,9.80
2007,05,18,07,10,9.80
2007,05,18,07,11,9.80
2007,05,18,07,12,9.80
2007,05,18,07,13,9.90
2007,05,18,07,14,9.90
2007,05,18,07,15,9.90
2007,05,18,07,16,9.90
2007,05,18,07,17,10.00
2007,05,18,07,18,10.10
2007,05,18,07,19,10.10
2007,05,18,07,20,10.10
2007,05,18,07,21,10.10
2007,05,18,07,22,10.20
2007,05,18,07,23,10.20
2007,05,18,07,24,10.30
2007,05,18,07,25,10.30
2007,05,18,07,26,10.30
2007,05,18,07,27,10.40
2007,05,18,07,28,10.40
2007,05,18,07,29,10.40
2007,05,18,07,30,10.40
2007,05,18,07,31,10.40
2007,05,18,07,32,10.50
2007,05,18,07,33,10.60
2007,05,18,07,34,10.60
2007,05,18,07,35,10.60
2007,05,18,07,36,10.50
2007,05,18,07,37,10.40
2007,05,18,07,38,10.40
2007,05,18,07,39,10.40
2007,05,18,07,40,10.40
2007,05,18,07,41,10.40
2007,05,18,07,42,10.50
2007,05,18,07,43,10.60
2007,05,18,07,44,10.60
2007,05,18,07,45,10.70
2007,05,18,07,46,10.70
2007,05,18,07,47,10.80
2007,05,18,07,48,10.80
2007,05,18,07,49,10.90
2007,05,18,07,50,10.80
2007,05,18,07,51,10.70
2007,05,18,07,52,10.60
2007,05,18,07,53,10.60
2007,05,18,07,54,10.60
2007,05,18,07,55,10.60
2007,05,18,07,56,10.60
2007,05,18,07,57,10.70
2007,05,18,07,58,10.70
2007,05,18,07,59,10.70
2007,05,18,08,00,10.80
2007,05,18,08,01,10.80
2007,05,18,08,02,10.90
2007,05,18,08,03,11.00
2007,05,18,08,04,11.10
2007,05,18,08,05,11.20
2007,05,18,08,06,11.20
2007,05,18,08,07,11.30
2007,05,18,08,08,11.30
2007,05,18,08,09,11.30
2007,05,18,08,10,11.30
2007,05,18,08,11,11.30
2007,05,18,08,12,11.30
2007,05,18,08,13,11.30
2007,05,18,08,14,11.20
2007,05,18,08,15,11.20
2007,05,18,08,16,11.20
2007,05,18,08,17,11.20
2007,05,18,08,18,11.10
2007,05,18,08,19,11.10
2007,05,18,08,20,11.10
2007,05,18,08,21,11.10
2007,05,18,08,22,11.20
2007,05,18,08,23,11.20
2007,05,18,08,24,11.20
2007,05,18,08,25,11.20
2007,05,18,08,26,11.20
2007,05,18,08,27,11.20
2007,05,18,08,28,11.20
2007,05,18,08,29,11.20
2007,05,18,08,30,11.20
2007,05,18,08,31,11.20
2007,05,18,08,32,11.20
2007,05,18,08,33,11.20
2007,05,18,08,34,11.20
2007,05,18,08,35,11.20
2007,05,18,08,36,11.20
2007,05,18,08,37,11.10
2007,05,18,08,38,11.10
2007,05,18,08,39,11.10
2007,05,18,08,40,11.10
2007,05,18,08,41,11.10
2007,05,18,08,42,11.20
2007,05,18,08,43,11.30
2007,05,18,08,44,11.40
2007,05,18,08,45,11.40
2007,05,18,08,46,11.30
2007,05,18,08,47,11.30
2007,05,18,08,48,11.30
2007,05,18,08,49,11.30
2007,05,18,08,50,11.20
2007,05,18,08,51,11.20
2007,05,18,08,52,11.20
2007,05,18,08,53,11.20
2007,05,18,08,54,11.30
2007,05,18,08,55,11.20
2007,05,18,08,56,11.10
2007,05,18,08,57,11.00
2007,05,18,08,58,10.90
2007,05,18,08,59,11.00
2007,05,18,09,00,11.10
2007,05,18,09,01,11.00
2007,05,18,09,02,10.90
2007,05,18,09,03,10.90
2007,05,18,09,04,10.80
2007,05,18,09,05,10.90
2007,05,18,09,06,10.90
2007,05,18,09,07,10.90
2007,05,18,09,08,10.90
2007,05,18,09,09,11.10
2007,05,18,09,10,11.20
2007,05,18,09,11,11.20
2007,05,18,09,12,11.20
2007,05,18,09,13,11.20
2007,05,18,09,14,11.10
2007,05,18,09,15,11.20
2007,05,18,09,16,11.20
2007,05,18,09,17,11.20
2007,05,18,09,18,11.20
2007,05,18,09,19,11.30
2007,05,18,09,20,11.30
2007,05,18,09,21,11.40
2007,05,18,09,22,11.40
2007,05,18,09,23,11.40
2007,05,18,09,24,11.40
2007,05,18,09,25,11.40
2007,05,18,09,26,11.40
2007,05,18,09,27,11.40
2007,05,18,09,28,11.60
2007,05,18,09,29,11.70
2007,05,18,09,30,11.80
2007,05,18,09,31,11.80
2007,05,18,09,32,11.80
2007,05,18,09,33,11.80
2007,05,18,09,34,11.80
2007,05,18,09,35,11.80
2007,05,18,09,36,11.80
2007,05,18,09,37,11.80
2007,05,18,09,38,11.80
2007,05,18,09,39,11.90
2007,05,18,09,40,12.00
2007,05,18,09,41,12.00
2007,05,18,09,42,12.10
2007,05,18,09,43,12.10
2007,05,18,09,44,12.10
2007,05,18,09,45,12.10
2007,05,18,09,46,12.10
2007,05,18,09,47,12.20
2007,05,18,09,48,12.10
2007,05,18,09,49,12.20
2007,05,18,09,50,12.30
2007,05,18,09,51,12.30
2007,05,18,09,52,12.30
2007,05,18,09,53,12.40
2007,05,18,09,54,12.50
2007,05,18,09,55,12.60
2007,05,18,09,56,12.60
2007,05,18,09,57,12.80
2007,05,18,09,58,12.80
2007,05,18,09,59,12.80
2007,05,18,10,00,12.70
2007,05,18,10,01,12.70
2007,05,18,10,02,12.70
2007,05,18,10,03,12.60
2007,05,18,10,04,12.60
2007,05,18,10,05,12.60
2007,05,18,10,06,12.50
2007,05,18,10,07,12.40
2007,05,18,10,08,12.30
2007,05,18,10,09,12.30
2007,05,18,10,10,12.30
2007,05,18,10,11,12.30
2007,05,18,10,12,12.30
2007,05,18,10,13,12.50
2007,05,18,10,14,12.50
2007,05,18,10,15,12.60
2007,05,18,10,16,12.70
2007,05,18,10,17,12.80
2007,05,18,10,18,12.90
2007,05,18,10,19,12.90
2007,05,18,10,20,12.90
2007,05,18,10,21,13.00
2007,05,18,10,22,13.00
2007,05,18,10,23,13.00
2007,05,18,10,24,13.10
2007,05,18,10,25,13.10
2007,05,18,10,26,13.00
2007,05,18,10,27,13.10
2007,05,18,10,28,13.10
2007,05,18,10,29,13.20
2007,05,18,10,30,13.30
2007,05,18,10,31,13.20
2007,05,18,10,32,13.20
2007,05,18,10,33,13.20
2007,05,18,10,34,13.20
2007,05,18,10,35,13.20
2007,05,18,10,36,13.30
2007,05,18,10,37,13.50
2007,05,18,10,38,13.50
2007,05,18,10,39,13.50
2007,05,18,10,40,13.40
2007,05,18,10,41,13.40
2007,05,18,10,42,13.40
2007,05,18,10,43,13.50
2007,05,18,10,44,13.50
2007,05,18,10,45,13.60
2007,05,18,10,46,13.60
2007,05,18,10,47,13.60
2007,05,18,10,48,13.60
2007,05,18,10,49,13.60
2007,05,18,10,50,13.60
2007,05,18,10,51,13.60
2007,05,18,10,52,13.70
2007,05,18,10,53,13.70
2007,05,18,10,54,13.70
2007,05,18,10,55,13.80
2007,05,18,10,56,13.90
2007,05,18,10,57,13.90
2007,05,18,10,58,14.00
2007,05,18,10,59,14.00
2007,05,18,11,00,14.10
2007,05,18,11,01,14.00
2007,05,18,11,02,14.00
2007,05,18,11,03,14.10
2007,05,18,11,04,14.10
2007,05,18,11,05,14.10
2007,05,18,11,06,14.20
2007,05,18,11,07,14.30
2007,05,18,11,08,14.30
2007,05,18,11,09,14.30
2007,05,18,11,10,14.40
2007,05,18,11,11,14.50
2007,05,18,11,12,14.60
2007,05,18,11,13,14.60
2007,05,18,11,14,14.70
2007,05,18,11,15,14.70
2007,05,18,11,16,14.60
2007,05,18,11,17,14.50
2007,05,18,11,18,14.60
2007,05,18,11,19,14.40
2007,05,18,11,20,14.40
2007,05,18,11,21,14.20
2007,05,18,11,22,14.20
2007,05,18,11,23,14.10
2007,05,18,11,24,14.20
2007,05,18,11,25,14.30
2007,05,18,11,26,14.40
2007,05,18,11,27,14.40
2007,05,18,11,28,14.30
2007,05,18,11,29,14.10
2007,05,18,11,30,14.00
2007,05,18,11,31,14.00
2007,05,18,11,32,13.90
2007,05,18,11,33,13.80
2007,05,18,11,34,13.90
2007,05,18,11,35,14.10
2007,05,18,11,36,14.20
2007,05,18,11,37,14.20
2007,05,18,11,38,14.40
2007,05,18,11,39,14.50
2007,05,18,11,40,14.30
2007,05,18,11,41,14.20
2007,05,18,11,42,14.30
2007,05,18,11,43,14.30
2007,05,18,11,44,14.20
2007,05,18,11,45,14.20
2007,05,18,11,46,14.20
2007,05,18,11,47,14.30
2007,05,18,11,48,14.30
2007,05,18,11,49,14.30
2007,05,18,11,50,14.30
2007,05,18,11,51,14.20
2007,05,18,11,52,14.20
2007,05,18,11,53,14.30
2007,05,18,11,54,14.40
2007,05,18,11,55,14.40
2007,05,18,11,56,14.40
2007,05,18,11,57,14.50
2007,05,18,11,58,14.50
2007,05,18,11,59,14.40
2007,05,18,12,00,14.30
2007,05,18,12,01,14.30
2007,05,18,12,02,14.10
2007,05,18,12,03,14.20
2007,05,18,12,04,14.20
2007,05,18,12,05,14.30
2007,05,18,12,06,14.30
2007,05,18,12,07,14.30
2007,05,18,12,08,14.30
2007,05,18,12,09,14.10
2007,05,18,12,10,13.90
2007,05,18,12,11,14.00
2007,05,18,12,12,14.10
2007,05,18,12,13,14.20
2007,05,18,12,14,14.30
2007,05,18,12,15,14.30
2007,05,18,12,16,14.40
2007,05,18,12,17,14.40
2007,05,18,12,18,14.40
2007,05,18,12,19,14.40
2007,05,18,12,20,14.40
2007,05,18,12,21,14.50
2007,05,18,12,22,14.60
2007,05,18,12,23,14.70
2007,05,18,12,24,14.70
2007,05,18,12,25,14.80
2007,05,18,12,26,14.80
2007,05,18,12,27,14.80
2007,05,18,12,28,14.80
2007,05,18,12,29,14.80
2007,05,18,12,30,14.80
2007,05,18,12,31,14.80
2007,05,18,12,32,14.80
2007,05,18,12,33,14.80
2007,05,18,12,34,14.80
2007,05,18,12,35,14.80
2007,05,18,12,36,14.80
2007,05,18,12,37,14.80
2007,05,18,12,38,14.80
2007,05,18,12,39,14.80
2007,05,18,12,40,14.70
2007,05,18,12,41,14.60
2007,05,18,12,42,14.50
2007,05,18,12,43,14.40
2007,05,18,12,44,14.30
2007,05,18,12,45,14.20
2007,05,18,12,46,14.20
2007,05,18,12,47,14.20
2007,05,18,12,48,14.20
2007,05,18,12,49,14.10
2007,05,18,12,50,14.10
2007,05,18,12,51,14.20
2007,05,18,12,52,14.20
2007,05,18,12,53,14.20
2007,05,18,12,54,14.40
2007,05,18,12,55,14.60
2007,05,18,12,56,14.70
2007,05,18,12,57,14.80
2007,05,18,12,58,14.90
2007,05,18,12,59,14.90
2007,05,18,13,00,14.80
2007,05,18,13,01,14.80
2007,05,18,13,02,14.80
2007,05,18,13,03,14.90
2007,05,18,13,04,14.90
2007,05,18,13,05,14.80
2007,05,18,13,06,14.80
2007,05,18,13,07,14.80
2007,05,18,13,08,14.80
2007,05,18,13,09,14.90
2007,05,18,13,10,15.00
2007,05,18,13,11,15.00
2007,05,18,13,12,15.10
2007,05,18,13,13,15.20
2007,05,18,13,14,15.30
2007,05,18,13,15,15.20
2007,05,18,13,16,15.10
2007,05,18,13,17,15.00
2007,05,18,13,18,15.00
2007,05,18,13,19,15.10
2007,05,18,13,20,15.10
2007,05,18,13,21,15.20
2007,05,18,13,22,15.20
2007,05,18,13,23,15.20
2007,05,18,13,24,15.20
2007,05,18,13,25,15.10
2007,05,18,13,26,15.20
2007,05,18,13,27,15.30
2007,05,18,13,28,15.40
2007,05,18,13,29,15.50
2007,05,18,13,30,15.60
2007,05,18,13,31,15.60
2007,05,18,13,32,15.70
2007,05,18,13,33,15.60
2007,05,18,13,34,15.40
2007,05,18,13,35,15.30
2007,05,18,13,36,15.30
2007,05,18,13,37,15.30
2007,05,18,13,38,15.40
2007,05,18,13,39,15.50
2007,05,18,13,40,15.60
2007,05,18,13,41,15.60
2007,05,18,13,42,15.50
2007,05,18,13,43,15.60
2007,05,18,13,44,15.60
2007,05,18,13,45,15.70
2007,05,18,13,46,15.80
2007,05,18,13,47,15.80
2007,05,18,13,48,15.80
2007,05,18,13,49,15.80
2007,05,18,13,50,15.80
2007,05,18,13,51,15.80
2007,05,18,13,52,15.90
2007,05,18,13,53,16.00
2007,05,18,13,54,16.20
2007,05,18,13,55,16.30
2007,05,18,13,56,16.30
2007,05,18,13,57,16.20
2007,05,18,13,58,16.10
2007,05,18,13,59,16.00
2007,05,18,14,00,15.90
2007,05,18,14,01,15.90
2007,05,18,14,02,16.00
2007,05,18,14,03,16.20
2007,05,18,14,04,16.30
2007,05,18,14,05,16.40
2007,05,18,14,06,16.50
2007,05,18,14,07,16.60
2007,05,18,14,08,16.70
2007,05,18,14,09,16.70
2007,05,18,14,10,16.70
2007,05,18,14,11,16.80
2007,05,18,14,12,16.80
2007,05,18,14,13,16.70
2007,05,18,14,14,16.70
2007,05,18,14,15,16.70
2007,05,18,14,16,16.80
2007,05,18,14,17,16.90
2007,05,18,14,18,17.00
2007,05,18,14,19,17.20
2007,05,18,14,20,17.30
2007,05,18,14,21,17.40
2007,05,18,14,22,17.50
2007,05,18,14,23,17.60
2007,05,18,14,24,17.60
2007,05,18,14,25,17.60
2007,05,18,14,26,17.40
2007,05,18,14,27,17.30
2007,05,18,14,28,17.30
2007,05,18,14,29,17.10
2007,05,18,14,30,17.00
2007,05,18,14,31,17.00
2007,05,18,14,32,17.00
2007,05,18,14,33,17.00
2007,05,18,14,34,17.00
2007,05,18,14,35,17.10
2007,05,18,14,36,17.30
2007,05,18,14,37,17.20
2007,05,18,14,38,17.20
2007,05,18,14,39,17.20
2007,05,18,14,40,17.20
2007,05,18,14,41,17.20
2007,05,18,14,42,17.20
2007,05,18,14,43,17.20
2007,05,18,14,44,17.10
2007,05,18,14,45,17.00
2007,05,18,14,46,17.00
2007,05,18,14,47,17.10
2007,05,18,14,48,17.10
2007,05,18,14,49,17.10
2007,05,18,14,50,17.20
2007,05,18,14,51,17.10
2007,05,18,14,52,17.10
2007,05,18,14,53,17.10
2007,05,18,14,54,17.20
2007,05,18,14,55,17.30
2007,05,18,14,56,17.30
2007,05,18,14,57,17.30
2007,05,18,14,58,17.10
2007,05,18,14,59,17.00
2007,05,18,15,00,17.00
2007,05,18,15,01,16.80
2007,05,18,15,02,16.70
2007,05,18,15,03,16.70
2007,05,18,15,04,16.60
2007,05,18,15,05,16.50
2007,05,18,15,06,16.40
2007,05,18,15,07,16.40
2007,05,18,15,08,16.30
2007,05,18,15,09,16.10
2007,05,18,15,10,15.90
2007,05,18,15,11,15.80
2007,05,18,15,12,15.80
2007,05,18,15,13,15.70
2007,05,18,15,14,15.60
2007,05,18,15,15,15.70
2007,05,18,15,16,15.80
2007,05,18,15,17,15.80
2007,05,18,15,18,15.80
2007,05,18,15,19,15.80
2007,05,18,15,20,15.80
2007,05,18,15,21,15.80
2007,05,18,15,22,15.80
2007,05,18,15,23,16.00
2007,05,18,15,24,16.10
2007,05,18,15,25,16.10
2007,05,18,15,26,16.10
2007,05,18,15,27,15.90
2007,05,18,15,28,15.90
2007,05,18,15,29,15.80
2007,05,18,15,30,15.70
2007,05,18,15,31,15.60
2007,05,18,15,32,15.50
2007,05,18,15,33,15.40
2007,05,18,15,34,15.40
2007,05,18,15,35,15.40
2007,05,18,15,36,15.50
2007,05,18,15,37,15.60
2007,05,18,15,38,15.50
2007,05,18,15,39,15.60
2007,05,18,15,40,15.50
2007,05,18,15,41,15.60
2007,05,18,15,42,15.60
2007,05,18,15,43,15.60
2007,05,18,15,44,15.70
2007,05,18,15,45,15.80
2007,05,18,15,46,16.00
2007,05,18,15,47,16.20
2007,05,18,15,48,16.20
2007,05,18,15,49,16.10
2007,05,18,15,50,16.10
2007,05,18,15,51,16.10
2007,05,18,15,52,15.90
2007,05,18,15,53,15.90
2007,05,18,15,54,16.10
2007,05,18,15,55,16.00
2007,05,18,15,56,15.90
2007,05,18,15,57,15.90
2007,05,18,15,58,16.00
2007,05,18,15,59,16.10
2007,05,18,16,00,15.90
2007,05,18,16,01,15.80
2007,05,18,16,02,15.70
2007,05,18,16,03,15.70
2007,05,18,16,04,15.60
2007,05,18,16,05,15.40
2007,05,18,16,06,15.30
2007,05,18,16,07,15.30
2007,05,18,16,08,15.20
2007,05,18,16,09,15.10
2007,05,18,16,10,15.10
2007,05,18,16,11,15.10
2007,05,18,16,12,15.10
2007,05,18,16,13,15.10
2007,05,18,16,14,15.30
2007,05,18,16,15,15.20
2007,05,18,16,16,15.10
2007,05,18,16,17,14.90
2007,05,18,16,18,14.50
2007,05,18,16,19,14.20
2007,05,18,16,20,14.00
2007,05,18,16,21,13.80
2007,05,18,16,22,13.70
2007,05,18,16,23,13.60
2007,05,18,16,24,13.70
2007,05,18,16,25,13.70
2007,05,18,16,26,13.70
2007,05,18,16,27,13.80
2007,05,18,16,28,13.90
2007,05,18,16,29,13.90
2007,05,18,16,30,14.00
2007,05,18,16,31,14.10
2007,05,18,16,32,14.20
2007,05,18,16,33,14.20
2007,05,18,16,34,14.30
2007,05,18,16,35,14.40
2007,05,18,16,36,14.50
2007,05,18,16,37,14.50
2007,05,18,16,38,14.50
2007,05,18,16,39,14.60
2007,05,18,16,40,14.60
2007,05,18,16,41,14.60
2007,05,18,16,42,14.70
2007,05,18,16,43,14.70
2007,05,18,16,44,14.80
2007,05,18,16,45,14.80
2007,05,18,16,46,14.80
2007,05,18,16,47,14.80
2007,05,18,16,48,14.80
2007,05,18,16,49,14.80
2007,05,18,16,50,14.80
2007,05,18,16,51,14.80
2007,05,18,16,52,14.70
2007,05,18,16,53,14.70
2007,05,18,16,54,14.60
2007,05,18,16,55,14.60
2007,05,18,16,56,14.60
2007,05,18,16,57,14.60
2007,05,18,16,58,14.60
2007,05,18,16,59,14.60
2007,05,18,17,00,14.70
2007,05,18,17,01,14.80
2007,05,18,17,02,14.80
2007,05,18,17,03,14.80
2007,05,18,17,04,14.80
2007,05,18,17,05,14.90
2007,05,18,17,06,14.90
2007,05,18,17,07,14.90
2007,05,18,17,08,14.90
2007,05,18,17,09,14.90
2007,05,18,17,10,15.00
2007,05,18,17,11,15.00
2007,05,18,17,12,15.00
2007,05,18,17,13,15.00
2007,05,18,17,14,15.10
2007,05,18,17,15,15.00
2007,05,18,17,16,15.00
2007,05,18,17,17,15.00
2007,05,18,17,18,15.10
2007,05,18,17,19,15.10
2007,05,18,17,20,15.10
2007,05,18,17,21,15.20
2007,05,18,17,22,15.30
2007,05,18,17,23,15.30
2007,05,18,17,24,15.30
2007,05,18,17,25,15.20
2007,05,18,17,26,15.20
2007,05,18,17,27,15.20
2007,05,18,17,28,15.20
2007,05,18,17,29,15.20
2007,05,18,17,30,15.10
2007,05,18,17,31,15.00
2007,05,18,17,32,15.00
2007,05,18,17,33,15.00
2007,05,18,17,34,14.90
2007,05,18,17,35,14.90
2007,05,18,17,36,14.80
2007,05,18,17,37,14.80
2007,05,18,17,38,14.80